Flag for U.S.A. Weather past 2 weeks in Salem, Oregon, U.S.A.

Now
45 °F

Cloudy.


Feels Like: 45 °F
Forecast: 41 / 55 °F
Wind: No wind

Location: McNary Field

Current Time: Apr 1, 2015 at 8:40:05 PM

Latest Report: Apr 1, 2015 at 7:56 PM


Visibility: 10 mi

Pressure: 30.32 "Hg

Humidity: 80%

Dew point: 39 °F

Location of SalemLocation

Historic Weather in Salem — Graph

°F

Salem temperature yesterday

Maximum temperature yesterday: 53 °F (at 9:56 AM)
Minimum temperature yesterday: 45 °F (at 11:56 PM)
Average temperature yesterday: 49 °F

Past Weeks' High & Low Weather Summary

 TemperatureHumidityPressure
High71 °F (Mar 26, 4:56 PM)97% (Mar 26, 1:56 AM)30.41 "Hg (Mar 26, 1:56 AM)
Low39 °F (Mar 19, 7:56 AM)30% (Mar 29, 4:56 PM)29.80 "Hg (Mar 23, 11:56 PM)
Average52 °F76%30.15 "Hg
* Reported Mar 17 6:56 PM — Apr 1 6:56 PM, Salem, Weather by CustomWeather, © 2015

Note: Actual official high and low records may vary slightly from our data, if they occured in-between our weather recording intervals... More about our weather records

Advertising

Salem weather history for previous 24 hours

 ConditionsComfort  
Time TempWeatherWind HumidityBarometerVisibility
6:56 PM
Wed, Apr 1
48 °FMostly cloudy.6 mph80%30.32 "Hg10 mi
5:56 PM51 °FBroken clouds.5 mph66%30.32 "Hg10 mi
4:56 PM48 °FBroken clouds.3 mph80%30.32 "Hg10 mi
3:56 PM46 °FMostly cloudy.6 mph83%30.33 "Hg10 mi
2:56 PM49 °FThunderstorms. Cloudy.7 mph77%30.31 "Hg10 mi
2:02 PM49 °FLight rain. Overcast.7 mph69%30.31 "Hg10 mi
1:56 PM50 °FThunderstorms. Overcast.8 mph63%30.31 "Hg10 mi
12:56 PM52 °FBroken clouds.N/A61%30.32 "Hg10 mi
11:56 AM51 °FPartly sunny.8 mph69%30.34 "Hg10 mi
10:56 AM48 °FBroken clouds.5 mph80%30.36 "Hg10 mi
9:56 AM46 °FLight rain. Mostly cloudy.6 mph83%30.35 "Hg10 mi
8:56 AM45 °FCloudy.5 mph90%30.34 "Hg10 mi
8:01 AM43 °FPartly sunny.5 mph89%30.33 "Hg10 mi
6:56 AM42 °FPartly cloudy.9 mph89%30.32 "Hg10 mi
5:56 AM42 °FOvercast.5 mph92%30.31 "Hg10 mi
4:56 AM43 °FMostly cloudy.5 mph89%30.31 "Hg10 mi
3:56 AM43 °FLight rain. Mostly cloudy.No wind93%30.31 "Hg10 mi
2:56 AM42 °FPassing clouds.6 mph89%30.31 "Hg10 mi
1:56 AM43 °FPassing clouds.No wind93%30.30 "Hg10 mi
12:56 AM44 °FPartly cloudy.8 mph89%30.30 "Hg10 mi
11:56 PM
Tue, Mar 31
45 °FPassing clouds.5 mph82%30.29 "Hg10 mi
10:56 PM46 °FOvercast.6 mph79%30.29 "Hg10 mi
9:56 PM47 °FPassing clouds.No wind77%30.28 "Hg10 mi
8:56 PM47 °FClear.5 mph77%30.26 "Hg10 mi
Weather by CustomWeather, © 2015

See weather overviewHow to use our weather pages